When you browse on this site, cookies collect data to enhance your experience and personalize the content and advertising you see.
Visit our Privacy Policy to learn more. By continuing to use the site, you agree to this use of cookies and data.
  • In Portugal
  • List of Countries
  • For 7 days
  • Water Temperature
  • Satellite Maps
  • Weather Map
  • Weather Widgets
  • user-avatar
    Login

    Hourly Weather Osowa

    Today, 25 May, Saturday

    Time Temperature Precipitation Wind Pressure Humidity
    00:00 +10°C° 0 mm 2 mps 740 mmHg 82%
    01:00 +10°C° 0 mm 1 mps 740 mmHg 81%
    02:00 +10°C° 0 mm 1 mps 739 mmHg 82%
    03:00 +10°C° 0 mm 1 mps 739 mmHg 82%
    04:00 +10°C° 0 mm 1 mps 739 mmHg 82%
    05:00 +10°C° 0 mm 1 mps 739 mmHg 81%
    06:00 +12°C° 0 mm 2 mps 739 mmHg 79%
    07:00 +13°C° 0 mm 3 mps 739 mmHg 76%
    08:00 +15°C° 0 mm 4 mps 739 mmHg 72%
    09:00 +17°C° 0 mm 4 mps 739 mmHg 68%
    10:00 +19°C° 0 mm 5 mps 739 mmHg 64%
    11:00 +20°C° 0 mm 5 mps 739 mmHg 61%
    12:00 +19°C° 0.4 mm 5 mps 739 mmHg 66%
    13:00 +18°C° 0.4 mm 4 mps 739 mmHg 72%
    14:00 +17°C° 0.4 mm 4 mps 739 mmHg 77%
    15:00 +16°C° 0 mm 5 mps 739 mmHg 75%
    16:00 +16°C° 0 mm 5 mps 739 mmHg 73%
    17:00 +15°C° 0 mm 5 mps 739 mmHg 71%
    18:00 +14°C° 0 mm 4 mps 739 mmHg 75%
    19:00 +13°C° 0 mm 4 mps 739 mmHg 79%
    20:00 +11°C° 0 mm 3 mps 739 mmHg 83%
    21:00 +10°C° 0 mm 3 mps 740 mmHg 87%
    22:00 +9°C° 0 mm 3 mps 740 mmHg 91%
    23:00 +7°C° 0 mm 2 mps 740 mmHg 95%

    Tomorrow, 26 May, Sunday

    Time Temperature Precipitation Wind Pressure Humidity
    00:00 +7°C° 0 mm 2 mps 740 mmHg 96%
    01:00 +6°C° 0 mm 2 mps 740 mmHg 96%
    02:00 +6°C° 0 mm 2 mps 740 mmHg 97%
    03:00 +6°C° 0 mm 2 mps 740 mmHg 97%
    04:00 +6°C° 0 mm 2 mps 740 mmHg 97%
    05:00 +5°C° 0 mm 3 mps 740 mmHg 97%
    06:00 +8°C° 0 mm 3 mps 740 mmHg 91%
    07:00 +8°C° 0 mm 4 mps 740 mmHg 85%
    08:00 +10°C° 0 mm 5 mps 740 mmHg 78%
    09:00 +10°C° 0 mm 5 mps 740 mmHg 79%
    10:00 +12°C° 0 mm 5 mps 740 mmHg 79%
    11:00 +12°C° 0 mm 5 mps 739 mmHg 79%
    12:00 +12°C° 0.1 mm 5 mps 739 mmHg 78%
    13:00 +13°C° 0.1 mm 5 mps 739 mmHg 76%
    14:00 +13°C° 0.1 mm 5 mps 739 mmHg 75%
    15:00 +13°C° 0.1 mm 5 mps 739 mmHg 74%
    16:00 +14°C° 0.1 mm 5 mps 739 mmHg 73%
    17:00 +14°C° 0.1 mm 5 mps 739 mmHg 72%
    18:00 +13°C° 0 mm 5 mps 739 mmHg 76%
    19:00 +13°C° 0 mm 4 mps 738 mmHg 79%
    20:00 +12°C° 0 mm 3 mps 738 mmHg 82%
    21:00 +11°C° 0 mm 3 mps 738 mmHg 85%
    22:00 +11°C° 0 mm 3 mps 738 mmHg 88%
    23:00 +10°C° 0 mm 3 mps 738 mmHg 91%

    Day after tomorrow, 27 May, Monday

    Time Temperature Precipitation Wind Pressure Humidity
    00:00 +11°C° 0 mm 4 mps 738 mmHg 88%
    01:00 +11°C° 0 mm 4 mps 738 mmHg 85%
    02:00 +12°C° 0 mm 4 mps 738 mmHg 83%
    03:00 +12°C° 0 mm 4 mps 738 mmHg 85%
    04:00 +12°C° 0 mm 4 mps 738 mmHg 88%
    05:00 +12°C° 0 mm 4 mps 738 mmHg 90%
    06:00 +13°C° 0 mm 4 mps 738 mmHg 87%
    07:00 +14°C° 0 mm 4 mps 738 mmHg 83%
    08:00 +15°C° 0 mm 5 mps 738 mmHg 80%
    09:00 +16°C° 0 mm 6 mps 738 mmHg 77%
    10:00 +17°C° 0 mm 7 mps 737 mmHg 74%
    11:00 +20°C° 0 mm 8 mps 737 mmHg 71%
    12:00 +20°C° 0.5 mm 7 mps 737 mmHg 73%
    13:00 +20°C° 0.5 mm 7 mps 737 mmHg 75%
    14:00 +20°C° 0.5 mm 6 mps 737 mmHg 77%
    15:00 +19°C° 1.1 mm 6 mps 737 mmHg 80%
    16:00 +19°C° 1.1 mm 6 mps 737 mmHg 83%
    17:00 +19°C° 1.1 mm 5 mps 737 mmHg 86%
    18:00 +18°C° 0.6 mm 4 mps 737 mmHg 89%
    19:00 +17°C° 0.6 mm 3 mps 738 mmHg 92%
    20:00 +16°C° 0.6 mm 2 mps 738 mmHg 95%
    21:00 +15°C° 0 mm 2 mps 738 mmHg 96%
    22:00 +15°C° 0 mm 2 mps 739 mmHg 96%
    23:00 +14°C° 0 mm 2 mps 739 mmHg 97%

    28 May, Tuesday

    Time Temperature Precipitation Wind Pressure Humidity
    00:00 +13°C° 0 mm 2 mps 739 mmHg 96%
    01:00 +13°C° 0 mm 1 mps 739 mmHg 95%
    02:00 +13°C° 0 mm 1 mps 739 mmHg 94%
    03:00 +13°C° 0 mm 1 mps 739 mmHg 93%
    04:00 +12°C° 0 mm 1 mps 739 mmHg 93%
    05:00 +12°C° 0 mm 1 mps 739 mmHg 92%
    06:00 +13°C° 0 mm 2 mps 739 mmHg 91%
    07:00 +13°C° 0 mm 2 mps 739 mmHg 90%
    08:00 +13°C° 0 mm 3 mps 739 mmHg 89%
    09:00 +13°C° 1.4 mm 3 mps 739 mmHg 91%
    10:00 +13°C° 1.4 mm 3 mps 739 mmHg 93%
    11:00 +14°C° 1.4 mm 3 mps 738 mmHg 95%
    12:00 +14°C° 1.6 mm 3 mps 738 mmHg 96%
    13:00 +14°C° 1.6 mm 3 mps 737 mmHg 96%
    14:00 +16°C° 1.6 mm 3 mps 737 mmHg 97%
    15:00 +16°C° 0.1 mm 3 mps 737 mmHg 95%
    16:00 +17°C° 0.1 mm 3 mps 736 mmHg 94%
    17:00 +17°C° 0.1 mm 3 mps 736 mmHg 93%
    18:00 +17°C° 0 mm 3 mps 736 mmHg 94%
    19:00 +16°C° 0 mm 3 mps 736 mmHg 95%
    20:00 +16°C° 0 mm 3 mps 736 mmHg 96%
    21:00 +14°C° 0.1 mm 3 mps 736 mmHg 97%
    22:00 +14°C° 0.1 mm 3 mps 735 mmHg 98%
    23:00 +13°C° 0.1 mm 3 mps 735 mmHg 98%

    29 May, Wednesday

    Time Temperature Precipitation Wind Pressure Humidity
    00:00 +14°C° 0.3 mm 3 mps 735 mmHg 98%
    01:00 +15°C° 0.3 mm 2 mps 735 mmHg 98%
    02:00 +15°C° 0.3 mm 2 mps 735 mmHg 98%
    03:00 +15°C° 0.2 mm 2 mps 735 mmHg 98%
    04:00 +15°C° 0.2 mm 2 mps 735 mmHg 98%
    05:00 +15°C° 0.2 mm 2 mps 735 mmHg 98%
    06:00 +15°C° 0 mm 2 mps 735 mmHg 98%
    07:00 +14°C° 0 mm 3 mps 735 mmHg 97%
    08:00 +14°C° 0 mm 3 mps 736 mmHg 96%
    09:00 +14°C° 0.6 mm 3 mps 736 mmHg 95%
    10:00 +14°C° 0.6 mm 4 mps 736 mmHg 94%
    11:00 +15°C° 0.6 mm 4 mps 736 mmHg 93%
    12:00 +14°C° 0.7 mm 5 mps 737 mmHg 93%
    13:00 +14°C° 0.7 mm 5 mps 737 mmHg 93%
    14:00 +13°C° 0.7 mm 6 mps 738 mmHg 94%
    15:00 +11°C° 0.7 mm 6 mps 738 mmHg 94%
    16:00 +10°C° 0.7 mm 7 mps 738 mmHg 94%
    17:00 +9°C° 0.7 mm 7 mps 739 mmHg 95%
    18:00 +9°C° 0.8 mm 7 mps 739 mmHg 95%
    19:00 +8°C° 0.8 mm 7 mps 740 mmHg 95%
    20:00 +8°C° 0.8 mm 7 mps 741 mmHg 95%
    21:00 +7°C° 0.2 mm 6 mps 741 mmHg 93%
    22:00 +7°C° 0.2 mm 6 mps 742 mmHg 92%
    23:00 +6°C° 0.2 mm 5 mps 743 mmHg 91%

    30 May, Thursday

    Time Temperature Precipitation Wind Pressure Humidity
    00:00 +6°C° 0 mm 5 mps 743 mmHg 90%
    01:00 +5°C° 0 mm 4 mps 743 mmHg 89%
    02:00 +5°C° 0 mm 4 mps 744 mmHg 89%
    03:00 +5°C° 0 mm 3 mps 744 mmHg 89%
    04:00 +4°C° 0 mm 3 mps 745 mmHg 89%
    05:00 +3°C° 0 mm 3 mps 745 mmHg 90%
    06:00 +5°C° 0 mm 3 mps 746 mmHg 84%
    07:00 +8°C° 0 mm 3 mps 746 mmHg 77%
    08:00 +10°C° 0 mm 3 mps 747 mmHg 71%
    09:00 +12°C° 0 mm 3 mps 747 mmHg 64%
    10:00 +13°C° 0 mm 3 mps 747 mmHg 57%
    11:00 +16°C° 0 mm 3 mps 748 mmHg 51%
    12:00 +16°C° 0 mm 3 mps 748 mmHg 51%
    13:00 +16°C° 0 mm 2 mps 748 mmHg 50%
    14:00 +17°C° 0 mm 2 mps 748 mmHg 50%
    15:00 +17°C° 0 mm 2 mps 748 mmHg 51%
    16:00 +17°C° 0 mm 2 mps 748 mmHg 51%
    17:00 +17°C° 0 mm 2 mps 748 mmHg 51%
    18:00 +16°C° 0 mm 1 mps 747 mmHg 58%
    19:00 +14°C° 0 mm 1 mps 747 mmHg 64%
    20:00 +13°C° 0 mm 1 mps 747 mmHg 71%
    21:00 +12°C° 0 mm 1 mps 747 mmHg 71%
    22:00 +12°C° 0 mm 1 mps 747 mmHg 72%
    23:00 +11°C° 0 mm 1 mps 747 mmHg 73%
    Show more